QPF
0.00 0.00 0.00 0.00 0.00 0.00 0.00 0.02 0.01 0.00 0.00 0.00 0.00 0.00 0.00 0.00 0.00 0.00 0.00 0.00 0.00 0.00 0.00 0.00 0.00 0.00 0.00 0.00 0.00 0.00 0.00 0.00 0.00 0.00 0.02 0.05 0.06 0.03 0.03 0.03 0.07 0.05 0.01 0.00
0.00 0.00 0.00 0.00 0.00 0.00 0.00 0.00 0.00 0.02 0.01 0.00 0.00 0.00 0.00 0.00 0.00 0.00 0.00 0.00 0.00 0.00 0.00 0.00 0.00 0.00 0.00 0.00 0.00 0.00 0.00 0.00 0.00 0.00 0.00 0.00 0.03 0.05 0.06 0.07 0.08 0.02 0.00 0.00
0.00 0.00 0.00 0.00 0.00 0.00 0.00 0.00 0.00 0.00 0.00 0.00 0.00 0.00 0.00 0.04 0.05 0.03 0.02 0.01 0.00 0.00 0.00 0.00 0.00 0.00 0.00 0.00 0.00 0.00 0.00 0.00 0.00 0.00 0.00 0.01 0.02 0.06 0.15 0.23 0.14 0.06 0.00 0.00
0.00 0.00 0.00 0.00 0.00 0.00 0.00 0.00 0.00 0.00 0.00 0.00 0.00 0.00 0.01 0.00 0.01 0.06 0.03 0.04 0.00 0.00 0.00 0.00 0.00 0.00 0.00 0.00 0.00 0.00 0.00 0.00 0.00 0.00 0.00 0.00 0.00 0.00 0.00 0.04 0.01 0.00 0.00 0.00
0.00 0.00 0.00 0.00 0.00 0.00 0.00 0.00 0.00 0.00 0.00 0.00 0.00 0.00 0.00 0.00 0.00 0.00 0.00 0.01 0.00 0.00 0.00 0.00 0.00 0.00 0.00 0.00 0.00 0.00 0.00 0.00 0.00 0.00 0.00 0.00 0.01 0.01 0.00 0.00 0.02 0.00 0.00 0.05
0.00 0.00 0.00 0.00 0.00 0.00 0.00 0.00 0.00 0.00 0.00 0.00 0.00 0.00 0.00 0.00 0.00 0.00 0.00 0.00 0.00 0.00 0.00 0.00 0.00 0.00 0.00 0.00 0.00 0.00 0.00 0.00 0.00 0.00 0.00 0.00 0.00 0.00 0.00 0.00 0.00 0.00 0.00 0.01
0.00 0.00 0.00 0.00 0.00 0.00 0.00 0.00 0.00 0.00 0.00 0.00 0.00 0.00 0.00 0.00 0.00 0.00 0.00 0.00 0.00 0.00 0.00 0.00 0.00 0.00 0.00 0.00 0.00 0.00 0.00 0.00 0.00 0.00 0.00 0.00 0.01 0.00 0.00 0.00 0.00 0.00 0.00 0.00
0.00 0.00 0.00 0.00 0.00 0.00 0.00 0.00 0.00 0.00 0.00 0.00 0.00 0.00 0.00 0.00 0.00 0.00 0.01 0.04 0.02 0.02 0.00 0.00 0.00 0.00 0.00 0.00 0.00 0.00 0.00 0.00 0.00 0.00 0.00 0.00 0.01 0.00 0.00 0.00 0.00 0.00 0.00 0.00
0.00 0.00 0.00 0.00 0.00 0.00 0.00 0.00 0.00 0.00 0.00 0.00 0.00 0.00 0.00 0.00 0.00 0.00 0.00 0.01 0.00 0.00 0.00 0.00 0.00 0.00 0.00 0.00 0.00 0.00 0.00 0.00 0.00 0.00 0.00 0.00 0.00 0.00 0.01 0.01 0.01 0.00 0.00 0.00
0.00 0.00 0.00 0.00 0.00 0.00 0.00 0.00 0.00 0.00 0.00 0.00 0.00 0.00 0.00 0.00 0.00 0.00 0.00 0.01 0.01 0.00 0.00 0.00 0.00 0.00 0.00 0.00 0.00 0.00 0.00 0.00 0.00 0.00 0.00 0.00 0.00 0.00 0.01 0.01 0.01 0.00 0.00 0.00
0.00 0.00 0.00 0.00 0.00 0.00 0.00 0.00 0.00 0.00 0.00 0.00 0.00 0.00 0.00 0.00 0.00 0.00 0.00 0.00 0.01 0.00 0.00 0.00 0.00 0.00 0.00 0.00 0.00 0.00 0.00 0.00 0.00 0.00 0.00 0.00 0.00 0.00 0.00 0.00 0.00 0.00 0.00 0.00
0.00 0.00 0.00 0.00 0.00 0.00 0.00 0.00 0.00 0.00 0.00 0.00 0.00 0.00 0.00 0.00 0.00 0.00 0.00 0.00 0.00 0.00 0.00 0.00 0.00 0.00 0.00 0.00 0.00 0.00 0.00 0.00 0.00 0.00 0.00 0.00 0.00 0.00 0.00 0.00 0.00 0.00 0.00 0.00
0.00 0.00 0.00 0.00 0.00 0.00 0.00 0.00 0.00 0.00 0.00 0.00 0.00 0.00 0.00 0.00 0.00 0.00 0.00 0.00 0.00 0.00 0.00 0.00 0.00 0.00 0.00 0.00 0.00 0.00 0.00 0.00 0.00 0.00 0.00 0.00 0.00 0.00 0.00 0.00 0.00 0.00 0.00 0.00
0.00 0.00 0.00 0.00 0.00 0.00 0.00 0.00 0.00 0.00 0.00 0.00 0.00 0.00 0.00 0.00 0.00 0.00 0.00 0.00 0.00 0.00 0.00 0.00 0.00 0.00 0.00 0.00 0.00 0.00 0.00 0.00 0.00 0.00 0.00 0.00 0.00 0.00 0.00 0.00 0.00 0.00 0.00 0.00
0.00 0.00 0.00 0.00 0.00 0.00 0.00 0.00 0.00 0.00 0.00 0.00 0.00 0.00 0.00 0.00 0.00 0.00 0.00 0.00 0.00 0.00 0.00 0.00 0.00 0.00 0.00 0.00 0.00 0.00 0.00 0.00 0.00 0.00 0.00 0.00 0.00 0.00 0.00 0.00 0.00 0.00 0.00 0.00
0.00 0.00 0.00 0.00 0.00 0.00 0.00 0.00 0.00 0.00 0.00 0.00 0.00 0.00 0.00 0.00 0.00 0.00 0.00 0.00 0.00 0.00 0.00 0.00 0.00 0.00 0.00 0.00 0.00 0.00 0.00 0.00 0.00 0.00 0.00 0.00 0.00 0.00 0.00 0.00 0.00 0.00 0.00 0.00
0.00 0.00 0.00 0.00 0.00 0.00 0.00 0.00 0.00 0.00 0.00 0.00 0.00 0.00 0.00 0.00 0.00 0.00 0.00 0.01 0.02 0.03 0.01 0.00 0.00 0.00 0.00 0.00 0.00 0.00 0.00 0.00 0.00 0.00 0.00 0.00 0.00 0.00 0.00 0.00 0.05 0.01 0.00 0.00
0.00 0.00 0.00 0.00 0.00 0.00 0.00 0.00 0.00 0.00 0.00 0.00 0.00 0.00 0.00 0.00 0.00 0.03 0.08 0.16 0.16 0.19 0.09 0.01 0.00 0.00 0.00 0.00 0.00 0.00 0.00 0.00 0.00 0.00 0.00 0.00 0.00 0.00 0.00 0.08 0.14 0.00 0.00 0.00
0.00 0.00 0.00 0.00 0.00 0.00 0.00 0.00 0.00 0.00 0.00 0.00 0.00 0.00 0.00 0.00 0.00 0.06 0.13 0.21 0.13 0.03 0.03 0.02 0.00 0.00 0.00 0.00 0.00 0.00 0.00 0.00 0.00 0.00 0.00 0.00 0.00 0.09 0.20 0.21 0.01 0.00 0.00 0.00
0.00 0.00 0.00 0.00 0.00 0.00 0.00 0.00 0.00 0.00 0.00 0.00 0.00 0.00 0.00 0.00 0.01 0.01 0.01 0.02 0.02 0.01 0.01 0.00 0.00 0.00 0.00 0.00 0.00 0.00 0.00 0.00 0.00 0.00 0.00 0.00 0.01 0.24 0.30 0.15 0.04 0.00 0.00 0.00
0.00 0.00 0.00 0.00 0.00 0.00 0.00 0.00 0.00 0.00 0.00 0.00 0.00 0.00 0.00 0.00 0.00 0.00 0.01 0.04 0.06 0.00 0.00 0.01 0.00 0.00 0.01 0.00 0.00 0.00 0.00 0.00 0.01 0.02 0.00 0.02 0.11 0.25 0.20 0.08 0.10 0.02 0.01 0.00
0.00 0.00 0.00 0.00 0.00 0.00 0.00 0.00 0.00 0.01 0.01 0.00 0.00 0.00 0.00 0.00 0.00 0.00 0.01 0.02 0.00 0.00 0.00 0.00 0.01 0.02 0.08 0.07 0.07 0.03 0.01 0.03 0.02 0.00 0.01 0.03 0.05 0.07 0.07 0.05 0.15 0.05 0.06 0.03
0.00 0.00 0.00 0.00 0.00 0.00 0.00 0.00 0.00 0.00 0.01 0.00 0.00 0.00 0.00 0.00 0.00 0.00 0.00 0.01 0.00 0.00 0.00 0.00 0.00 0.00 0.06 0.16 0.21 0.14 0.07 0.03 0.04 0.11 0.11 0.15 0.14 0.11 0.09 0.11 0.17 0.10 0.07 0.03
0.00 0.00 0.00 0.00 0.00 0.00 0.00 0.00 0.00 0.00 0.00 0.00 0.00 0.00 0.00 0.00 0.00 0.00 0.00 0.00 0.00 0.00 0.00 0.00 0.00 0.00 0.00 0.03 0.10 0.09 0.07 0.07 0.09 0.07 0.07 0.11 0.13 0.04 0.12 0.23 0.19 0.10 0.09 0.03
0.00 0.00 0.00 0.00 0.00 0.00 0.00 0.00 0.00 0.00 0.00 0.00 0.00 0.00 0.00 0.00 0.00 0.00 0.00 0.00 0.00 0.00 0.00 0.00 0.00 0.00 0.00 0.00 0.00 0.00 0.00 0.04 0.05 0.04 0.02 0.06 0.03 0.03 0.20 0.25 0.09 0.07 0.10 0.03
0.00 0.00 0.00 0.00 0.00 0.00 0.00 0.00 0.00 0.00 0.00 0.00 0.00 0.00 0.00 0.00 0.00 0.00 0.00 0.00 0.00 0.00 0.00 0.02 0.00 0.00 0.00 0.00 0.00 0.00 0.02 0.01 0.02 0.01 0.03 0.05 0.04 0.12 0.24 0.22 0.09 0.09 0.06 0.02
MSLP
1000.02 1000.68 1000.79 1000.84 1001.13 1002.07 1003.53 1004.33 1004.95 1004.02 1002.56 1002.98 1002.04 1002.12 1001.62 1002.12 1002.92 1003.32 1004.14 1004.55 1005.21 1005.62 1005.80 1006.22 1006.54 1007.07 1007.96 1008.80 1009.67 1010.33 1011.00 1011.83 1012.49 1013.37 1014.05 1014.58 1014.86 1014.86 1015.50 1015.14 1015.24 1015.40 1015.34 1015.67
1000.81 1000.54 1000.12 999.86 999.70 1001.30 1002.36 1002.67 1002.51 1002.82 1001.74 1001.28 1000.27 1000.83 1001.16 1001.69 1002.32 1003.31 1003.85 1004.45 1004.94 1005.16 1005.30 1005.87 1006.18 1006.65 1007.57 1008.35 1009.31 1010.10 1010.65 1011.46 1012.14 1012.82 1013.48 1013.94 1014.30 1014.46 1014.61 1014.68 1014.98 1015.10 1015.22 1015.43
1000.75 1000.22 999.53 999.32 999.18 1000.71 1001.05 1000.95 1000.86 1000.90 999.72 999.09 999.17 1000.57 1001.70 1003.32 1003.66 1003.12 1003.53 1003.86 1003.66 1004.10 1004.67 1005.18 1005.86 1006.41 1007.08 1008.10 1008.92 1009.65 1010.35 1011.04 1011.78 1012.46 1013.22 1014.07 1014.45 1014.51 1014.52 1014.83 1014.97 1015.17 1015.11 1015.28
1000.12 999.44 999.12 998.82 998.80 998.98 999.53 999.31 998.81 998.76 998.99 999.36 999.37 1001.59 1002.99 1002.99 1003.13 1001.93 1000.83 1001.82 1002.53 1002.87 1003.68 1004.60 1005.13 1005.92 1006.55 1007.50 1008.44 1009.20 1009.83 1010.56 1011.36 1012.13 1012.88 1013.52 1013.91 1014.45 1014.53 1014.70 1014.94 1015.18 1015.17 1015.30
999.86 999.12 998.71 998.48 998.13 997.86 998.05 997.76 998.30 998.87 999.51 999.87 1000.05 1001.33 1003.11 1003.49 1003.65 1002.89 1002.26 1002.36 1002.01 1001.86 1002.58 1003.56 1004.19 1004.84 1005.72 1006.80 1007.78 1008.62 1009.31 1010.09 1010.83 1011.55 1012.08 1012.79 1013.38 1013.81 1014.01 1014.35 1014.72 1015.05 1015.26 1015.22
999.70 998.61 998.16 997.94 997.77 997.75 997.97 998.27 998.74 999.43 1000.21 1000.97 1000.71 1001.03 1002.57 1003.04 1002.48 1002.45 1001.88 1001.56 1000.83 1001.41 1001.56 1002.49 1003.20 1003.97 1004.98 1005.96 1007.04 1008.03 1008.98 1009.73 1010.31 1010.97 1011.61 1012.31 1012.98 1013.42 1013.92 1014.36 1014.77 1014.93 1015.03 1015.12
999.86 998.98 997.92 997.56 997.83 997.91 998.46 999.62 1000.48 1001.28 1001.33 1001.49 1000.26 1000.32 999.67 1000.69 1000.76 1000.45 1000.78 1001.43 1001.58 1000.49 1000.52 1001.67 1002.66 1003.40 1004.35 1005.31 1006.24 1007.39 1008.37 1009.26 1009.82 1010.44 1011.19 1011.79 1012.33 1012.91 1013.35 1013.84 1014.30 1014.70 1014.92 1015.03
1000.58 999.56 998.55 997.94 997.61 998.05 998.89 999.81 1001.26 1002.00 1002.19 1001.63 1000.29 999.95 999.25 998.48 998.71 999.20 999.74 998.85 997.96 1000.65 1000.54 1000.70 1001.36 1002.31 1003.27 1004.33 1005.34 1006.58 1007.67 1008.54 1009.32 1009.94 1010.65 1011.31 1011.75 1012.30 1012.77 1013.22 1013.68 1014.00 1014.30 1014.56
1000.64 999.85 998.75 997.92 997.45 997.56 998.61 999.45 1000.26 1001.59 1001.82 1001.96 1000.98 1000.36 999.14 999.03 998.86 998.46 998.81 997.53 997.46 999.07 999.92 999.83 1000.50 1001.35 1002.41 1003.48 1004.48 1005.61 1006.99 1007.90 1008.63 1009.38 1010.08 1010.81 1011.34 1011.90 1012.43 1012.79 1013.12 1013.47 1013.84 1014.19
1001.17 1000.95 999.74 998.75 997.84 997.69 998.17 999.11 1000.36 1001.68 1003.05 1002.98 1001.55 1000.00 999.18 998.90 998.67 998.67 998.13 997.83 997.85 998.52 998.60 999.23 999.94 1000.74 1001.67 1002.64 1003.67 1004.97 1006.06 1007.03 1007.86 1008.75 1009.39 1010.11 1010.85 1011.41 1011.91 1012.29 1012.85 1013.13 1013.52 1014.05
1001.96 1002.10 1001.30 999.93 999.47 999.50 999.01 999.56 1000.65 1001.68 1002.89 1003.37 1002.50 1000.94 998.39 997.81 997.54 997.20 996.11 997.71 997.90 996.66 997.75 998.60 999.45 1000.19 1000.87 1001.88 1002.96 1004.32 1005.50 1006.52 1007.41 1008.12 1008.88 1009.65 1010.34 1010.85 1011.38 1011.83 1012.31 1012.75 1013.28 1013.83
1003.15 1003.03 1002.81 1001.45 1000.52 999.79 999.76 1000.28 1000.86 1002.40 1003.07 1002.67 1001.76 999.93 997.95 997.59 996.77 997.04 996.54 996.61 996.83 997.13 997.79 998.19 998.98 999.79 1000.53 1001.37 1002.50 1003.48 1004.78 1005.72 1006.51 1007.10 1008.24 1009.11 1009.68 1010.25 1010.86 1011.35 1011.95 1012.54 1013.26 1013.93
1003.78 1004.12 1004.20 1002.79 1001.35 1000.68 1000.90 1000.87 1001.08 1001.49 1001.84 1002.60 1002.10 1000.22 998.66 997.75 997.35 997.39 997.46 997.03 996.94 996.98 997.29 997.86 998.43 999.29 999.90 1000.67 1001.73 1002.80 1003.82 1004.77 1005.67 1006.71 1007.50 1008.43 1009.16 1009.49 1010.10 1010.84 1011.67 1012.35 1013.12 1013.78
1003.85 1004.77 1005.20 1004.78 1003.82 1002.74 1001.93 1001.40 1001.25 1001.67 1002.28 1002.47 1001.78 1000.72 999.29 999.03 998.45 998.36 998.53 998.55 998.47 998.26 998.15 998.19 998.75 999.19 999.39 1000.01 1000.85 1001.80 1002.80 1003.76 1004.77 1005.84 1006.90 1007.63 1008.32 1008.80 1009.43 1010.40 1011.24 1012.06 1012.78 1013.57
1004.09 1005.05 1005.08 1004.65 1003.74 1002.93 1002.37 1001.77 1001.39 1001.56 1001.64 1002.04 1001.55 1001.28 1000.08 1000.00 999.51 998.94 998.89 999.13 999.37 999.46 999.09 998.85 998.84 999.20 999.16 999.81 1000.51 1001.13 1001.95 1002.95 1003.78 1004.90 1005.71 1006.68 1007.65 1008.43 1009.24 1010.16 1010.99 1011.79 1012.50 1013.25
1004.73 1005.31 1005.36 1005.15 1004.37 1003.65 1002.85 1001.93 1001.28 1001.00 1001.03 1001.08 1001.27 1001.08 1001.56 1000.81 1000.85 1001.87 1002.50 1000.88 1000.36 1000.06 999.79 999.19 999.05 998.96 999.18 999.04 999.82 1000.57 1001.35 1002.30 1003.21 1003.96 1004.68 1005.69 1006.77 1007.93 1008.94 1009.94 1010.79 1011.54 1012.33 1012.87
1005.53 1005.75 1006.19 1005.98 1005.09 1004.21 1003.26 1001.88 1001.25 1000.88 1000.46 1000.91 1001.91 1002.37 1001.92 1002.85 1003.97 1004.04 1003.48 1003.77 1004.31 1004.21 1002.12 1000.69 999.90 999.32 998.92 998.59 998.86 999.93 1000.74 1001.74 1002.59 1003.35 1004.15 1005.05 1006.04 1007.30 1008.51 1009.76 1010.98 1011.78 1012.41 1013.02
1005.03 1005.76 1006.13 1006.38 1005.66 1004.76 1002.85 1001.33 1000.85 1000.49 1000.55 1001.08 1002.20 1002.77 1003.39 1003.93 1004.20 1004.51 1004.25 1004.40 1004.52 1005.58 1005.75 1002.55 1000.84 999.92 999.37 998.93 998.66 998.98 1000.07 1001.10 1002.17 1003.09 1003.89 1004.67 1005.72 1007.16 1008.54 1009.86 1010.93 1011.17 1012.15 1013.10
1003.67 1004.67 1005.77 1006.00 1005.64 1004.31 1002.59 1001.24 1001.09 1000.66 1001.20 1001.50 1002.17 1002.97 1003.44 1003.42 1003.51 1004.27 1003.76 1003.95 1004.46 1004.35 1002.89 1002.24 1001.75 1000.70 999.41 998.96 998.51 998.92 999.55 1000.40 1001.44 1002.46 1003.46 1004.63 1005.85 1007.16 1008.15 1009.30 1009.95 1010.50 1011.86 1012.88
1002.87 1003.55 1005.11 1005.40 1005.18 1004.06 1002.47 1000.99 1000.43 1000.33 1001.34 1001.72 1002.16 1003.02 1003.23 1003.09 1004.20 1004.77 1004.46 1004.11 1004.31 1004.17 1004.44 1002.78 1001.84 1001.28 1000.13 999.00 997.82 998.78 999.48 1000.16 1000.98 1001.88 1003.17 1004.67 1005.81 1006.69 1007.86 1008.76 1009.59 1010.31 1011.58 1012.54
1003.50 1003.80 1004.58 1004.73 1004.38 1003.22 1001.84 1001.18 1000.49 1001.44 1004.09 1002.45 1002.44 1002.92 1003.20 1003.62 1004.11 1003.69 1003.94 1003.70 1004.16 1003.73 1003.19 1002.40 1002.28 1002.15 1001.48 1000.71 999.42 999.41 999.91 1000.41 1001.05 1002.05 1003.09 1004.37 1005.59 1006.58 1007.63 1009.09 1009.59 1010.56 1011.69 1012.88
1004.27 1004.34 1004.56 1004.55 1004.29 1003.48 1002.22 1001.86 1002.65 1003.79 1003.60 1003.53 1002.76 1002.63 1002.86 1002.97 1003.12 1003.12 1003.03 1003.37 1003.34 1002.95 1002.78 1002.68 1002.62 1002.42 1002.39 1002.45 1001.19 1001.40 1001.11 1001.19 1001.73 1002.75 1003.68 1004.61 1005.54 1006.21 1007.33 1008.58 1009.93 1010.69 1011.36 1012.66
1004.96 1005.19 1005.40 1005.19 1004.48 1003.46 1003.07 1003.09 1002.78 1002.75 1003.10 1003.18 1003.13 1002.50 1002.62 1002.83 1003.03 1003.25 1003.26 1003.17 1003.30 1003.72 1003.30 1003.05 1003.01 1003.03 1002.90 1002.76 1002.64 1002.40 1002.56 1002.50 1002.53 1003.10 1004.29 1004.60 1005.68 1006.51 1007.17 1008.24 1009.41 1010.47 1011.41 1012.50
1005.34 1004.93 1005.24 1005.14 1004.09 1003.79 1003.30 1003.10 1003.21 1003.18 1003.13 1002.99 1002.89 1003.10 1002.87 1002.94 1003.03 1003.28 1003.25 1003.35 1003.39 1003.41 1003.46 1003.26 1003.32 1003.31 1003.22 1002.74 1003.23 1003.65 1003.22 1003.22 1003.62 1003.60 1004.50 1005.12 1005.76 1006.66 1007.39 1008.17 1009.18 1010.22 1011.00 1011.88
1006.46 1005.88 1005.25 1004.79 1004.42 1003.89 1003.60 1003.40 1003.36 1003.28 1003.20 1003.12 1003.01 1002.98 1002.96 1003.12 1003.00 1002.91 1003.31 1003.60 1003.46 1003.14 1003.11 1003.32 1003.39 1003.26 1003.25 1003.30 1002.72 1003.28 1003.51 1003.81 1003.92 1004.22 1004.59 1005.01 1005.66 1006.32 1007.35 1008.04 1008.92 1009.55 1010.55 1011.21
1005.88 1005.31 1005.35 1004.73 1004.66 1004.52 1004.38 1003.98 1003.56 1003.47 1003.37 1002.93 1002.99 1003.04 1003.03 1003.10 1003.20 1003.21 1003.21 1003.10 1003.11 1003.10 1002.89 1003.01 1003.10 1003.06 1003.12 1003.11 1003.40 1002.59 1003.64 1003.67 1003.98 1004.30 1004.90 1005.43 1005.95 1006.84 1007.64 1008.06 1009.07 1009.48 1009.74 1010.32
Thickness
5861 5832 5820 5843 5856 5844 5829 5820 5812 5821 5844 5835 5837 5846 5862 5866 5861 5858 5851 5847 5838 5833 5837 5837 5836 5837 5834 5827 5818 5814 5810 5806 5801 5793 5786 5782 5782 5784 5778 5778 5776 5774 5776 5774
5834 5817 5854 5872 5874 5847 5834 5828 5827 5827 5848 5840 5859 5858 5869 5870 5866 5859 5853 5848 5843 5840 5842 5839 5839 5840 5835 5829 5823 5816 5815 5810 5805 5800 5792 5790 5788 5787 5785 5781 5775 5774 5774 5775
5819 5838 5868 5867 5864 5839 5835 5833 5842 5834 5856 5883 5875 5849 5846 5845 5847 5859 5856 5858 5858 5851 5845 5846 5842 5841 5840 5833 5827 5822 5819 5814 5810 5806 5798 5788 5786 5784 5782 5777 5778 5776 5774 5774
5833 5860 5857 5855 5852 5865 5836 5869 5876 5872 5854 5828 5873 5802 5823 5834 5837 5862 5882 5868 5865 5863 5858 5852 5851 5844 5843 5838 5834 5829 5825 5820 5815 5809 5801 5794 5788 5783 5786 5785 5783 5779 5777 5775
5823 5842 5844 5843 5856 5875 5853 5882 5871 5867 5846 5841 5852 5816 5818 5835 5824 5841 5856 5860 5869 5871 5867 5859 5859 5857 5853 5847 5840 5834 5830 5825 5821 5815 5810 5803 5796 5794 5794 5789 5785 5782 5780 5779
5834 5865 5861 5856 5869 5871 5873 5860 5856 5854 5835 5790 5831 5828 5807 5814 5837 5848 5854 5864 5880 5873 5876 5871 5871 5868 5858 5855 5848 5840 5830 5825 5824 5819 5815 5809 5802 5798 5792 5789 5784 5783 5782 5783
5827 5840 5865 5875 5852 5864 5856 5824 5775 5775 5776 5777 5841 5832 5840 5851 5856 5866 5863 5859 5862 5879 5881 5872 5868 5867 5862 5856 5853 5845 5836 5827 5827 5823 5818 5814 5808 5803 5798 5794 5789 5785 5783 5782
5785 5782 5841 5865 5849 5833 5832 5825 5770 5763 5761 5785 5836 5817 5835 5879 5884 5878 5874 5875 5889 5859 5873 5876 5879 5875 5871 5864 5859 5850 5841 5833 5830 5826 5821 5816 5813 5808 5803 5799 5794 5791 5788 5787
5782 5791 5849 5859 5865 5855 5831 5808 5835 5799 5812 5785 5810 5835 5864 5870 5866 5874 5866 5880 5882 5871 5869 5880 5885 5882 5877 5872 5865 5857 5845 5839 5834 5828 5823 5817 5814 5808 5804 5802 5799 5796 5793 5790
5810 5776 5828 5845 5860 5862 5849 5851 5793 5784 5762 5759 5791 5812 5820 5846 5853 5863 5867 5871 5872 5873 5879 5886 5887 5884 5882 5878 5872 5862 5852 5844 5839 5832 5826 5821 5815 5811 5807 5805 5800 5797 5793 5789
5804 5787 5793 5828 5825 5812 5821 5812 5818 5804 5788 5760 5756 5785 5867 5868 5863 5866 5887 5872 5864 5880 5888 5889 5889 5887 5886 5880 5874 5864 5854 5846 5840 5835 5828 5822 5817 5814 5809 5806 5803 5799 5794 5787
5794 5782 5760 5789 5828 5838 5832 5816 5813 5765 5772 5786 5782 5798 5881 5872 5881 5870 5876 5878 5876 5884 5886 5892 5891 5888 5885 5880 5874 5866 5857 5849 5845 5841 5830 5824 5821 5818 5812 5808 5804 5800 5793 5785
5787 5756 5733 5760 5792 5817 5804 5814 5813 5810 5804 5781 5770 5788 5862 5869 5871 5872 5866 5877 5880 5891 5889 5887 5887 5884 5885 5882 5876 5869 5861 5854 5849 5841 5833 5827 5821 5820 5815 5810 5804 5798 5792 5785
5791 5763 5745 5725 5752 5778 5775 5797 5807 5798 5769 5773 5785 5797 5833 5845 5855 5862 5862 5864 5865 5872 5880 5881 5877 5877 5883 5883 5879 5874 5867 5861 5853 5845 5835 5830 5825 5822 5818 5811 5805 5798 5791 5783
5784 5749 5760 5766 5778 5785 5781 5788 5796 5786 5791 5775 5788 5795 5824 5833 5844 5854 5862 5861 5860 5860 5868 5872 5874 5870 5874 5877 5875 5875 5871 5865 5859 5849 5843 5836 5829 5823 5816 5809 5802 5796 5790 5782
5777 5744 5756 5751 5770 5772 5767 5782 5790 5797 5801 5801 5802 5803 5813 5832 5826 5813 5810 5845 5851 5857 5863 5867 5866 5870 5869 5872 5872 5870 5869 5865 5860 5853 5848 5842 5833 5822 5814 5806 5800 5793 5786 5781
5755 5745 5734 5724 5752 5754 5742 5771 5782 5789 5803 5801 5779 5791 5808 5798 5791 5795 5806 5803 5789 5788 5822 5840 5851 5859 5862 5869 5873 5866 5864 5863 5858 5853 5849 5843 5835 5823 5813 5803 5792 5785 5779 5773
5752 5744 5738 5720 5735 5705 5757 5792 5797 5793 5800 5797 5780 5783 5783 5785 5787 5789 5794 5789 5784 5778 5770 5815 5836 5846 5849 5856 5865 5868 5864 5859 5852 5847 5843 5841 5832 5819 5808 5796 5788 5786 5776 5767
5778 5751 5728 5713 5711 5740 5765 5783 5779 5777 5772 5788 5780 5779 5779 5787 5787 5777 5791 5787 5776 5755 5782 5809 5817 5830 5845 5847 5859 5860 5859 5856 5850 5843 5839 5833 5824 5811 5803 5792 5785 5784 5774 5764
5780 5768 5734 5729 5714 5708 5754 5790 5804 5799 5749 5782 5778 5770 5774 5779 5751 5757 5772 5776 5774 5781 5781 5807 5814 5820 5830 5845 5860 5855 5851 5848 5844 5840 5833 5824 5816 5810 5798 5789 5782 5778 5769 5760
5747 5749 5731 5727 5721 5740 5776 5784 5797 5744 5718 5768 5768 5766 5768 5759 5759 5773 5777 5780 5777 5786 5794 5800 5804 5804 5813 5825 5840 5841 5841 5836 5837 5832 5825 5817 5810 5801 5792 5777 5768 5766 5758 5748
5735 5727 5722 5727 5718 5709 5772 5767 5736 5733 5748 5751 5764 5763 5766 5770 5771 5771 5775 5768 5773 5778 5782 5790 5789 5792 5798 5804 5813 5812 5817 5824 5824 5818 5810 5803 5797 5793 5785 5774 5764 5759 5753 5741
5716 5723 5710 5722 5722 5751 5756 5749 5759 5759 5752 5751 5747 5761 5759 5761 5759 5756 5760 5761 5761 5762 5771 5775 5777 5779 5786 5790 5792 5795 5797 5801 5804 5800 5794 5793 5785 5780 5777 5769 5760 5750 5742 5734
5728 5737 5715 5717 5736 5739 5749 5750 5746 5747 5744 5749 5750 5743 5748 5743 5748 5745 5747 5752 5750 5750 5759 5765 5765 5767 5770 5779 5778 5777 5782 5783 5785 5786 5782 5779 5776 5771 5766 5760 5752 5743 5737 5729
5710 5715 5715 5713 5722 5728 5735 5738 5740 5738 5737 5736 5740 5739 5734 5731 5732 5740 5737 5737 5741 5742 5747 5754 5753 5756 5760 5764 5771 5770 5771 5772 5771 5770 5772 5771 5768 5763 5757 5751 5743 5739 5732 5726
5711 5707 5694 5697 5711 5707 5711 5721 5726 5725 5725 5729 5724 5724 5725 5720 5715 5718 5720 5730 5733 5733 5737 5741 5746 5746 5749 5753 5754 5765 5759 5762 5760 5760 5757 5754 5751 5745 5741 5738 5731 5729 5726 5723